Location: Unspecified
(51.5147°N, 7.4673°E)
Time: 08:58:21
(UTC+01:00)

Vanguard 1 Rocket - Pass Details

Date: 19 February 2026
Orbit: 653 x 4214 km, 34.3° (Epoch: 12 March)

Event Time Altitude Azimuth Distance (km) Brightness Sun altitude
Rises 14:06:55 0° 228° (SW) 4,375 11.9 24.8°
Reaches altitude 10° 14:09:40 10° 218° (SW) 3,755 12.2 24.6°
Maximum altitude 14:18:37 34° 158° (SSE) 3,324 11.1 24.1°
Drops below altitude 10° 14:33:56 10° 104° (ESE) 6,425 11.6 23.0°
Sets 14:40:35 0° 97° (E) 7,918 12.0 22.5°
